User: anonymous   Login
Location: Plum
(40.5000°N, 79.7500°W)
Time: 18:24:46
(UTC-04:00)
Language:

Cosmos 1825 - Orbit

View from above orbital plane
View from above orbital plane
View from above satellite
View from above satellite

Ground track
Ground track

The orbit data is extracted from the following two-line orbital elements,

1 17566U 87024A   16146.91500381 +.00001254 +00000-0 +60485-4 0  9990
2 17566 082.5037 313.8381 0005469 114.5542 245.6262 15.17782970594793
Epoch (UTC): 25 May 2016 21:57:36
Eccentricity: 0.0005469
inclination: 82.5037°
perigee height: 509 km
apogee height: 516 km
right ascension of ascending node: 313.8381°
argument of perigee: 114.5542°
revolutions per day: 15.17782970
mean anomaly at epoch: 245.6262°
orbit number at epoch: 59479

The dashed part of the orbit path shows where the satellite is in the earth's shadow,  

DLR